Location: State Camp
(41.2367°N, 77.7828°W)
Time: 03:56:19
(UTC-04:00)

Daily predictions for brighter satellites

Satellite Brightness Start Highest point End
(mag) Time Altitude Azimuth Time Altitude Azimuth Time Altitude Azimuth
Cosmos 676 Rocket 4.2 00:07:57 59° WSW 00:08:42 67° WNW 00:14:02 10° NNE
Atlas Centaur 2 4.1 00:01:19 10° WSW 00:05:19 27° SW 00:05:19 27° SW
Cosmos 1943 Rocket 2.0 00:14:04 10° NNW 00:19:38 90° ENE 00:19:48 85° SSE
Nadezhda 4 Rocket 4.0 00:18:32 59° SW 00:19:42 76° W 00:26:05 10° N
Cosmos 1953 3.6 00:17:42 10° NNW 00:20:33 37° NW 00:20:33 37° NW
Lacrosse 4 Rocket 2.4 00:22:27 42° NW 00:22:27 42° NW 00:25:59 10° NNE
Cosmos 1023 Rocket 4.4 00:25:48 82° NE 00:25:48 82° NE 00:30:53 10° NNE
Cosmos 1842 Rocket 4.1 00:22:07 10° NNW 00:25:39 55° NW 00:25:39 55° NW
Cosmos 1470 4.1 00:25:56 10° N 00:28:29 38° N 00:28:29 38° N
Cosmos 1140 Rocket 3.4 00:30:00 84° N 00:30:00 84° N 00:35:07 10° NNE
Cosmos 2369 Rocket 3.8 00:38:42 10° NW 00:42:55 22° W 00:42:55 22° W
Cosmos 1656 Rocket 3.7 00:37:21 10° NNW 00:43:03 69° ENE 00:43:21 67° E
Cosmos 2208 Rocket 4.0 00:39:04 10° NNW 00:43:49 72° NW 00:43:49 72° NW
CZ-2C R/B 3.7 00:44:25 10° NNE 00:49:08 34° E 00:49:08 34° E
Meteor 1-16 Rocket 4.2 00:46:01 10° N 00:51:35 70° E 00:51:41 70° E
CZ-4B R/B 3.5 00:57:18 28° NNW 00:57:18 28° NNW 00:59:12 10° NNW
COSMOS 2406 3.3 00:55:40 64° W 00:56:10 67° WNW 01:01:53 10° NNE
NOSS 3-2 (A) 4.1 00:57:43 41° E 00:57:43 41° E 01:03:14 10° NE
Cosmos 1627 Rocket 4.3 00:56:54 76° SW 00:57:22 83° W 01:03:31 10° N
ATLAS 3B R/B 3.9 00:52:48 12° WSW 00:59:31 42° NW 01:06:34 10° NNE
Cosmos 2195 Rocket 4.3 00:59:36 72° SW 01:00:08 79° W 01:06:24 10° N
Cosmos 2026 Rocket 3.7 00:59:46 79° SSW 01:00:10 89° W 01:06:17 10° N
Cosmos 1766 Rocket 4.5 01:02:19 44° NE 01:02:19 44° NE 01:05:40 10° NNE
Cosmos 2228 Rocket 4.2 01:02:52 10° N 01:06:20 38° NE 01:06:20 38° NE
Cosmos 614 Rocket 4.2 01:08:19 63° WNW 01:08:19 63° WNW 01:13:22 10° NNE
SL-8 R/B 4.5 01:13:58 10° WNW 01:18:41 50° NNE 01:20:11 37° ENE
Cosmos 1707 4.4 01:20:15 30° NW 01:20:15 30° NW 01:22:45 10° N
USA 238 DEB 4.2 01:23:30 36° WSW 01:26:15 57° NW 01:33:13 10° NNE
USA 238 4.2 01:23:38 37° WSW 01:26:21 57° NW 01:33:19 10° NNE
Meteor 1-24 Rocket 3.8 01:27:05 70° WSW 01:27:29 74° W 01:33:30 10° N
Cosmos 2082 Rocket 3.5 01:29:53 26° E 01:29:53 26° E 01:34:19 10° NE
Helios 1A Rocket 4.2 01:26:09 10° N 01:29:04 35° NW 01:29:04 35° NW
Cosmos 2221 3.9 01:26:06 10° NNW 01:28:56 33° NW 01:28:56 33° NW
USA 215 3.8 01:24:06 10° ENE 01:29:53 41° ESE 01:29:53 41° ESE
Cosmos 1607 4.3 01:33:14 48° W 01:34:38 59° NW 01:40:47 10° NNE
Cosmos 1553 Rocket 4.0 01:34:37 10° NNW 01:40:54 68° W 01:41:27 64° SW
Cosmos 1833 Rocket 3.9 01:47:33 28° ESE 01:47:43 29° ESE 01:52:28 10° NE
ISS -0.5 01:47:29 16° NNW 01:48:02 16° NNW 01:50:13 10° NNE
Cosmos 841 Rocket 4.3 01:43:29 10° N 01:48:32 45° ENE 01:49:35 40° E
CZ-4C R/B 2.0 01:48:51 85° SE 01:48:54 86° ESE 01:54:53 10° NE
Meteor 1-21 Rocket 4.3 01:48:32 66° ESE 01:48:55 68° E 01:54:37 10° NNE
NOSS 3-3 (A) 4.4 01:45:06 10° NW 01:52:36 86° NE 01:55:46 41° SE
NOSS 3-3 (C) 4.4 01:45:13 10° NW 01:52:42 86° NE 01:55:56 40° SE
Cosmos 1066 4.5 01:58:17 84° S 01:58:28 90° SSE 02:03:59 10° N
Timation 2 Rocket 4.1 01:57:26 63° S 01:58:40 83° ESE 02:05:32 10° NNE
Cosmos 2344 3.7 01:58:28 51° S 02:00:22 67° ESE 02:08:54 10° NE
NOSS 3-2 (C) 3.3 01:59:33 67° SW 02:00:28 87° WNW 02:07:11 10° NE
Cosmos 1943 Rocket 4.5 02:00:53 10° W 02:01:18 11° W 02:01:18 11° W
Cosmos 1818 3.6 01:59:35 10° NNW 02:05:06 76° ENE 02:05:51 64° ESE
Cosmos 468 Rocket 4.4 02:01:18 10° NNW 02:05:46 49° WNW 02:05:46 49° WNW
Cosmos 1674 3.9 02:08:51 38° NE 02:08:51 38° NE 02:11:27 10° NNE
Cosmos 1814 Rocket 4.3 02:03:05 10° NNW 02:07:45 55° W 02:07:45 55° W
CENTAUR R/B 3.6 02:10:44 27° SE 02:11:38 28° ESE 02:17:05 10° NE
Cosmos 2266 Rocket 4.0 02:11:04 59° SW 02:12:07 69° W 02:18:32 10° N
H-2A R/B 4.0 02:14:43 21° SE 02:14:43 21° SE 02:20:40 10° E
Cosmos 1486 Rocket 4.2 02:16:00 55° W 02:16:17 56° WNW 02:21:24 10° N
Meteor 2-20 Rocket 4.4 02:17:53 62° SW 02:18:50 74° W 02:25:02 10° N
Lacrosse 5 4.0 02:15:34 10° NNW 02:19:48 26° NNE 02:24:00 10° E
Cosmos 1726 4.3 02:21:44 10° NNE 02:24:27 19° ENE 02:25:11 18° E
PSLV R/B 3.8 02:20:34 10° NNE 02:25:11 67° E 02:25:11 67° E
Cosmos 2369 3.6 02:20:17 10° NNW 02:25:53 64° WSW 02:26:01 64° WSW
IRAS Rocket 4.4 02:21:13 10° NNE 02:26:39 58° ESE 02:27:34 51° SE
Cosmos 1656 3.9 02:21:13 10° NNW 02:26:55 68° ENE 02:28:57 40° SE
CZ-2C R/B 3.6 02:29:35 46° W 02:29:35 46° W 02:34:52 10° NNW
CZ-2C R/B 3.7 02:24:44 10° N 02:29:39 33° WNW 02:30:39 30° W
Cosmos 1867 3.5 02:37:24 61° WSW 02:38:15 74° WNW 02:43:45 10° NNE
IRS-P3 4.4 02:34:47 10° NNE 02:40:04 61° E 02:41:12 49° SSE
Genesis I 4.0 02:36:12 10° NNW 02:40:06 50° NE 02:40:38 46° E
Cosmos 1151 Rocket 3.6 02:36:01 10° NNW 02:39:29 47° WNW 02:39:29 47° WNW
Cosmos 1908 4.4 02:37:55 10° NNW 02:40:29 35° NW 02:40:29 35° NW
Cosmos 1437 Rocket 3.2 02:38:06 10° NNW 02:41:17 54° NNW 02:41:17 54° NNW
Aureole 1 Rocket 3.6 02:42:42 10° NNW 02:47:03 69° ENE 02:49:08 37° SE
ASTEX 1 3.7 02:46:03 10° N 02:50:52 50° W 02:51:17 49° W
Resurs 1-4 Rocket 4.5 02:48:56 10° NE 02:52:05 16° E 02:55:12 10° SE
JB-3 4.3 02:48:38 10° N 02:52:31 77° NW 02:52:31 77° NW
Sich 1 3.4 02:53:35 50° SE 02:54:13 56° E 02:58:33 10° NNE
Cosmos 1763 Rocket 4.0 02:49:34 10° NNW 02:54:20 41° W 02:54:20 41° W
USA 32 4.1 02:52:08 10° NNW 02:57:16 56° W 02:57:56 52° WSW
Cosmos 2151 3.4 02:58:18 47° WNW 02:58:18 47° WNW 03:02:19 10° N
Cosmos 1980 Rocket 2.7 02:53:32 10° NNW 02:59:06 58° ENE 03:04:06 13° SE
Cosmos 1441 Rocket 4.5 03:03:59 31° WNW 03:03:59 31° WNW 03:07:16 10° N
SL-08 R/B 4.3 03:02:44 44° S 03:04:51 86° W 03:10:59 10° N
Cosmos 1300 2.5 03:03:59 10° N 03:07:48 84° WNW 03:07:48 84° WNW
BREEZE-M DEB (TANK) 3.0 03:08:59 40° SE 03:08:59 40° SE 03:14:12 10° ENE
Cosmos 540 Rocket 3.4 03:05:17 10° NNW 03:10:29 90° ENE 03:12:41 36° SSE
Cosmos 724 4.5 03:09:50 40° WSW 03:11:47 62° NW 03:17:37 10° NNE
Cosmos 2058 3.1 03:12:15 55° W 03:12:26 56° W 03:16:34 10° N
USA 215 3.6 03:06:57 10° NE 03:13:21 60° NW 03:17:12 25° WSW
Cosmos 2082 Rocket 2.8 03:11:43 34° WSW 03:13:30 44° WNW 03:18:54 10° NNE
Cosmos 2242 Rocket 3.6 03:09:29 10° N 03:13:55 76° E 03:15:13 45° SSE
ERS-2 2.6 03:12:44 10° N 03:16:18 48° WNW 03:16:18 48° WNW
AQUA 3.7 03:16:31 10° N 03:21:17 80° WNW 03:22:38 47° SSW
Cosmos 1697 Rocket 2.7 03:15:56 10° NNW 03:21:30 57° WSW 03:23:25 38° SSW
Meteor 1-27 4.3 03:15:44 10° NNW 03:21:33 69° W 03:23:58 36° SSW
NPP 3.7 03:18:16 10° N 03:23:37 66° WNW 03:25:31 40° SW
CZ-2D R/B 3.6 03:20:34 10° NE 03:25:09 30° E 03:29:13 12° SSE
ISS -0.2 03:23:37 10° NNW 03:25:28 14° N 03:27:20 10° NE
SL-16 R/B 3.5 03:20:39 10° SE 03:26:36 48° ENE 03:32:35 10° N
Abrixas 2.8 03:29:48 62° NNW 03:29:48 62° NNW 03:32:51 10° NE
SL-14 R/B 3.3 03:30:30 52° WSW 03:30:52 55° W 03:34:39 10° N
Cosmos 2360 4.4 03:25:09 10° NNW 03:30:53 74° ENE 03:36:35 10° SSE
Cosmos 1833 Rocket 3.4 03:29:15 29° WSW 03:31:25 41° WNW 03:36:44 10° N
Spot 4 Rocket 4.1 03:28:48 10° NNE 03:33:58 77° ESE 03:36:31 31° S
Cosmos 1455 3.2 03:32:02 10° N 03:35:41 43° ENE 03:38:21 17° SE
CZ-4C R/B 4.2 03:34:05 10° W 03:38:17 21° NNW 03:42:54 10° NNE
Cosmos 968 Rocket 3.4 03:38:14 33° S 03:40:34 81° ESE 03:45:44 10° NNE
Cosmos 1538 Rocket 4.0 03:36:51 10° NNW 03:42:06 86° ENE 03:47:21 10° SSE
CZ-3 Stage 3 3.9 03:31:04 10° WSW 03:44:28 34° SSW 03:48:16 10° SE
Cosmos 1703 3.3 03:43:37 44° SSW 03:44:43 68° W 03:48:41 10° N
Cosmos 1437 4.1 03:45:20 27° WNW 03:45:20 27° WNW 03:48:13 10° NNW
Cosmos 1633 Rocket 3.7 03:44:54 34° WSW 03:46:00 40° WNW 03:50:11 10° N
Atlas Centaur 2 4.4 03:50:23 13° S 03:50:23 13° S 03:51:32 10° SSE
SL-08 R/B 4.0 03:46:26 32° WSW 03:47:26 36° W 03:51:55 10° NNW
Lacrosse 5 rocket 3.7 03:44:22 10° NNW 03:48:14 29° NNE 03:52:11 10° E
ATLAS 5 CENTAUR R/B 4.0 03:45:24 10° SSE 03:48:43 19° ESE 03:52:11 10° ENE
ADEOS 3.7 03:44:58 10° N 03:50:07 63° WNW 03:52:44 29° SW
SL-16 R/B 2.7 03:49:28 10° NNW 03:55:07 63° ENE 04:00:43 10° SE
EO 1 Del DPAF 3.2 03:52:36 21° SSE 03:55:09 90° WSW 03:59:05 10° NNW
Cosmos 332 Rocket 4.1 03:51:58 10° NNW 03:56:33 46° WSW 03:58:49 26° SSW
Cosmos 1726 3.4 03:56:47 10° NW 03:59:48 24° W 03:59:50 24° W
Cosmos 1470 Rocket 3.7 03:59:11 30° SW 04:01:12 57° W 04:05:35 10° N
Meteor 1-4 Rocket 2.5 03:57:53 10° NNW 04:01:37 73° W 04:03:48 24° S
CENTAUR R/B 2.9 03:57:54 23° WSW 04:01:46 55° NW 04:08:35 10° NNE
Cosmos 1777 Rocket 4.1 03:59:39 22° SSW 04:03:07 80° ESE 04:08:27 10° NNE
Lacrosse 5 1.7 03:58:09 10° NW 04:03:13 76° SW 04:08:15 10° SE
Meteor 2-10 4.1 03:59:26 10° NNW 04:04:32 61° W 04:08:39 17° S
USA 161 3.0 04:05:41 18° WNW 04:05:41 18° WNW 04:06:41 10° NW
IRS-1D 3.6 04:00:36 10° NNE 04:05:59 88° WNW 04:09:56 19° SSW
Cosmos 1933 Rocket 3.8 04:04:16 28° SW 04:06:15 51° W 04:10:34 10° N
Cosmos 1709 Rocket 4.0 04:02:08 19° SSW 04:06:48 74° W 04:13:06 10° N
UNK 3.7 04:04:16 10° SSE 04:08:50 89° E 04:13:27 10° NNW
Cosmos 1271 Rocket 2.7 04:05:10 10° NNW 04:08:56 58° W 04:11:02 23° SSW
Cosmos 2322 Rocket 2.2 04:04:50 10° NNW 04:10:30 89° ENE 04:16:07 10° SSE
ARIANE 5 R/B 2.5 04:07:08 10° N 04:12:15 69° WNW 04:15:46 20° SSW
BREEZE-M DEB (TANK) 3.8 04:10:20 10° NW 04:13:44 27° N 04:15:48 10° ENE
SME Rocket 4.5 04:07:46 10° SSE 04:15:09 63° ENE 04:20:05 10° N
Cosmos 773 Rocket 3.9 04:11:05 10° NNW 04:16:15 84° WSW 04:21:23 10° SSE
Cosmos 1626 2.3 04:15:54 25° SSW 04:17:50 54° W 04:21:32 10° N
BREEZE-M TANK 3.0 04:13:58 10° W 04:18:05 42° N 04:20:27 10° ENE
CZ-2D R/B 4.2 04:14:51 10° NNE 04:18:59 51° E 04:22:58 10° S
Okean O Rocket 2.7 04:14:55 10° NNE 04:19:10 43° E 04:23:23 10° S
Cosmos 2292 Rocket 2.9 04:23:56 25° SW 04:25:22 51° W 04:28:29 10° N
Resurs 1-4 Rocket 2.2 04:27:05 10° N 04:32:22 65° WNW 04:37:09 13° SSW
Cosmos 2221 Rocket 3.6 04:35:08 10° N 04:39:38 77° W 04:44:08 10° S
MTI 4.5 04:38:19 13° SSW 04:41:01 36° W 04:44:10 10° NNW
Okean 1-7 3.3 04:37:10 10° N 04:41:34 71° E 04:45:55 10° SSE
Cosmos 1980 Rocket 3.5 04:38:42 10° NW 04:42:34 19° W 04:45:46 12° SW
OAO 3 Rocket 3.9 04:40:13 15° SW 04:43:36 36° S 04:47:57 10° ESE
Cosmos 2360 Rocket 2.8 04:38:19 10° NNW 04:43:54 61° ENE 04:49:27 10° SE
CZ-4B R/B 3.6 04:38:58 10° NNE 04:44:23 65° ESE 04:49:50 10° S
Cosmos 2322 4.2 04:43:33 10° NNW 04:49:16 67° ENE 04:54:57 10° SSE
Cosmos 2219 4.4 04:44:12 10° S 04:49:31 42° ESE 04:54:53 10° NE
Cosmos 2112 Rocket 3.9 04:44:38 10° NNW 04:49:51 79° WSW 04:55:01 10° SSE
MOZ.5/SAFIR/RUBIN 5/SL-8 4.0 04:50:47 10° SSE 04:55:26 76° ENE 05:00:09 10° N
CZ-4B R/B 3.3 04:51:58 10° NNE 04:55:51 63° E 04:59:56 10° S
Cosmos 1346 4.0 04:54:13 12° SW 04:56:45 33° WNW 04:59:35 10° N
PAYLOAD B 4.3 04:51:57 10° NNE 04:57:29 87° ESE 05:03:00 10° SSW
CZ-4B DEB 4.4 04:53:53 10° NNE 04:59:24 78° ESE 05:04:54 10° S
ISS -1.4 04:59:38 10° NW 05:02:39 33° NNE 05:05:40 10° E
SL-08 ROCKET BODY 4.4 04:58:55 10° SSW 05:04:52 73° W 05:11:00 10° N
CZ-2D R/B 3.0 05:00:33 10° N 05:05:13 34° WNW 05:09:53 10° SW
UNKNOWN OBJECT B 3.8 05:02:13 10° N 05:05:32 29° WNW 05:08:52 10° SW
Cosmos 1869 Rocket 4.0 05:01:53 10° SSW 05:06:05 45° WNW 05:10:20 10° N
SL-16 R/B 3.5 05:05:10 10° SSW 05:10:24 28° W 05:15:41 10° NW
Cosmos 1455 4.3 05:09:42 10° WNW 05:10:58 11° W 05:12:14 10° WSW
Cosmos 2298 Rocket 4.2 05:06:53 10° SSW 05:12:13 85° ESE 05:17:35 10° NNE
Cosmos 2154 Rocket 4.3 05:06:42 10° S 05:12:59 79° E 05:19:22 10° N
Nadezhda 3 Rocket 4.2 05:06:56 10° N 05:13:08 77° E 05:19:16 10° SSE
Cosmos 304 Rocket 4.1 05:09:14 10° NNW 05:13:50 45° WSW 05:18:25 10° S
Cosmos 1933 4.4 05:11:40 10° NNW 05:15:02 26° W 05:18:23 10° SSW
COSMOS 2428 3.7 05:10:00 10° NNW 05:15:35 54° ENE 05:21:07 10° SE
Cosmos 1833 4.4 05:11:57 10° SW 05:17:41 65° WNW 05:23:25 10° NNE
